Location: Grantham
(50.0698°N, 112.0083°W)
Time: 06:17:47
(UTC+00:00)

ISS - Visible Passes

Search period start: 30 November 2021 00:00
Search period end: 10 December 2021 00:00
Orbit: 417 x 423 km, 51.6° (Epoch: 29 November)

Date Brightness Start Highest point End Pass type
(mag) Time Alt. Az. Time Alt. Az. Time Alt. Az.
30 Nov -3.8 01:26:05 10° WNW 01:29:28 67° N 01:29:50 61° NE visible
01 Dec -3.6 00:38:52 10° W 00:42:15 64° N 00:44:34 19° E visible
01 Dec -1.7 02:15:46 10° WNW 02:17:33 28° W 02:17:33 28° W visible
02 Dec -3.9 01:28:35 10° WNW 01:32:00 89° NNE 01:32:21 70° ESE visible
03 Dec -3.8 00:41:23 10° WNW 00:44:47 75° NNE 00:47:12 18° E visible
03 Dec -1.6 02:18:18 10° W 02:20:12 26° WSW 02:20:12 26° WSW visible
04 Dec -3.1 01:31:02 10° WNW 01:34:22 53° SSW 01:35:09 41° SSE visible
05 Dec -3.5 00:43:48 10° WNW 00:47:11 72° SSW 00:50:15 12° ESE visible
05 Dec -1.1 02:21:09 10° W 02:23:15 18° SW 02:23:15 18° SW visible
05 Dec -3.7 23:56:33 10° WNW 23:59:58 90° NNE 00:03:22 10° ESE visible
06 Dec -1.7 01:33:38 10° W 01:36:33 26° SW 01:38:33 15° SSE visible
07 Dec -2.3 00:46:15 10° W 00:49:26 37° SSW 00:52:35 10° SE visible
07 Dec -2.8 23:58:55 10° WNW 00:02:16 52° SSW 00:05:34 10° SE visible
08 Dec -0.6 01:37:01 10° WSW 01:38:29 12° SW 01:39:56 10° SSW visible
09 Dec -0.8 00:49:02 10° W 00:51:27 18° SW 00:53:50 10° S visible
